Thunderstorms From: 21-05-2018 15:00 Until: 22-05-2018 15:00 warning for: Thunderstorms Level: Yellow info button

Although rather usual in this region, locally or potentially dangerous phenomena are expected. (such as local winds, summer thunderstorms, rising streams or high waves) Be aware and pay attention to the latest weather updates, especially if you carry out activities exposed to weather or close to a stream or shoreline. 


Meteo18 Weather Cam more information Meteo18 Weather Cam


warning for Thunderstorms more information blitzortung!


Rain radar more information rain snow radar


Visit our other weather sites:

Template documentation
and downloads

And another site



Weather Underground History page Text

Daily Summary for January 4, 2018 Units:  Both    English   Metric
« Previous Day
Next Day »
Daily Weekly Monthly Yearly Custom
  High: Low: Average:
Temperature: TemperatureC °F /  -17.8 °C 8.5 °F /  -13.1 °C 11.5 °F /  -11.4 °C
Dew Point: DewpointC °F /  -17.8 °C 7.6 °F /  -13.6 °C 10.5 °F /  -11.9 °C
Humidity: Humidity % 87 % 93 %
Wind Speed: WindSpeedKMH mph /  0 km/h - 20 mph /  32.2 km/h
Wind Gust: WindSpeedGustKMH mph /  0 km/h - -
Wind:- - WSW
Pressure: PressurehPa in /  0 hPa 1005.6 in /  34049.6 hPa -
Precipitation: 14.0 in /  355.6 mm    
Historical Graphs
 
 
Tabular Data for January 4, 2018
Time Temperature Dew Point Pressure Wind Wind Speed Wind Gust Humidity Rainfall Rate (Hourly)
TemperatureC °F /  -17.8 °C DewpointC °F /  -17.8 °C PressurehPa in /  0 hPa Calm     Humidity % HourlyPrecipMM in /  0 mm
00:09 8.6 °F /  -13 °C 8.0 °F /  -13.3 °C 1011.7 in /  34256.2 hPa SW 7.9 mph /  12.7 km/h 14.5 mph /  23.3 km/h 96 % 2.0 in /  50.8 mm
00:15 8.7 °F /  -12.9 °C 8.1 °F /  -13.3 °C 1011.7 in /  34256.2 hPa SW 13.0 mph /  20.9 km/h 25.7 mph /  41.4 km/h 96 % 1.8 in /  45.72 mm
00:21 8.7 °F /  -12.9 °C 8.1 °F /  -13.3 °C 1011.7 in /  34256.2 hPa SW 13.0 mph /  20.9 km/h 17.7 mph /  28.5 km/h 96 % 2.0 in /  50.8 mm
00:27 8.7 °F /  -12.9 °C 8.1 °F /  -13.3 °C 1011.4 in /  34246 hPa West 4.7 mph /  7.6 km/h 17.7 mph /  28.5 km/h 96 % 2.0 in /  50.8 mm
00:43 8.8 °F /  -12.9 °C 8.2 °F /  -13.2 °C 1010.7 in /  34222.3 hPa SW 11.1 mph /  17.9 km/h 17.7 mph /  28.5 km/h 96 % 2.0 in /  50.8 mm
00:49 8.8 °F /  -12.9 °C 8.2 °F /  -13.2 °C 1010.7 in /  34222.3 hPa SW 19.5 mph /  31.4 km/h 20.9 mph /  33.6 km/h 96 % 2.0 in /  50.8 mm
00:57 8.8 °F /  -12.9 °C 8.2 °F /  -13.2 °C 1010.4 in /  34212.1 hPa WSW 9.7 mph /  15.6 km/h 16.1 mph /  25.9 km/h 96 % 2.3 in /  58.42 mm
01:15 8.8 °F /  -12.9 °C 8.2 °F /  -13.2 °C 1010.0 in /  34198.6 hPa SW 9.7 mph /  15.6 km/h 14.5 mph /  23.3 km/h 96 % 2.5 in /  63.5 mm
01:27 8.8 °F /  -12.9 °C 8.2 °F /  -13.2 °C 1009.7 in /  34188.4 hPa WSW 6.4 mph /  10.3 km/h 14.5 mph /  23.3 km/h 96 % 2.3 in /  58.42 mm
01:41 8.8 °F /  -12.9 °C 8.2 °F /  -13.2 °C 1009.4 in /  34178.3 hPa SW 6.4 mph /  10.3 km/h 11.3 mph /  18.2 km/h 96 % 2.3 in /  58.42 mm
01:47 8.7 °F /  -12.9 °C 8.1 °F /  -13.3 °C 1009.4 in /  34178.3 hPa SW 7.9 mph /  12.7 km/h 11.3 mph /  18.2 km/h 96 % 2.3 in /  58.42 mm
01:53 8.7 °F /  -12.9 °C 8.1 °F /  -13.3 °C 1009.0 in /  34164.7 hPa SW 7.9 mph /  12.7 km/h 11.3 mph /  18.2 km/h 96 % 2.3 in /  58.42 mm
01:55 8.7 °F /  -12.9 °C 8.1 °F /  -13.3 °C 1009.0 in /  34164.7 hPa SSW 3.2 mph /  5.1 km/h 11.3 mph /  18.2 km/h 96 % 2.3 in /  58.42 mm
02:07 8.7 °F /  -12.9 °C 8.1 °F /  -13.3 °C 1009.0 in /  34164.7 hPa SSW 3.2 mph /  5.1 km/h 9.7 mph /  15.6 km/h 96 % 1.8 in /  45.72 mm
02:13 8.7 °F /  -12.9 °C 8.1 °F /  -13.3 °C 1009.0 in /  34164.7 hPa SW 6.4 mph /  10.3 km/h 9.7 mph /  15.6 km/h 96 % 1.8 in /  45.72 mm
02:25 8.6 °F /  -13 °C 8.2 °F /  -13.2 °C 1009.0 in /  34164.7 hPa SW 6.4 mph /  10.3 km/h 11.3 mph /  18.2 km/h 97 % 1.5 in /  38.1 mm
02:37 8.6 °F /  -13 °C 8.2 °F /  -13.2 °C 1008.7 in /  34154.6 hPa South 6.4 mph /  10.3 km/h 11.3 mph /  18.2 km/h 97 % 1.3 in /  33.02 mm
02:49 8.6 °F /  -13 °C 8.2 °F /  -13.2 °C 1008.4 in /  34144.4 hPa SSW 6.4 mph /  10.3 km/h 12.9 mph /  20.8 km/h 97 % 1.0 in /  25.4 mm
03:01 8.6 °F /  -13 °C 8.2 °F /  -13.2 °C 1008.4 in /  34144.4 hPa SW 3.2 mph /  5.1 km/h 9.7 mph /  15.6 km/h 97 % 1.0 in /  25.4 mm
03:07 8.5 °F /  -13.1 °C 8.1 °F /  -13.3 °C 1008.4 in /  34144.4 hPa South 3.2 mph /  5.1 km/h 8.0 mph /  12.9 km/h 97 % 0.8 in /  20.32 mm
03:13 8.5 °F /  -13.1 °C 8.1 °F /  -13.3 °C 1008.4 in /  34144.4 hPa SSW 6.4 mph /  10.3 km/h 8.0 mph /  12.9 km/h 97 % 0.5 in /  12.7 mm
03:17 8.5 °F /  -13.1 °C 8.1 °F /  -13.3 °C 1008.4 in /  34144.4 hPa SSW 4.7 mph /  7.6 km/h 8.0 mph /  12.9 km/h 97 % 0.5 in /  12.7 mm
03:19 8.5 °F /  -13.1 °C 8.1 °F /  -13.3 °C 1008.4 in /  34144.4 hPa SSW 3.2 mph /  5.1 km/h 6.4 mph /  10.3 km/h 97 % 0.5 in /  12.7 mm
03:21 8.5 °F /  -13.1 °C 8.1 °F /  -13.3 °C 1008.4 in /  34144.4 hPa South 3.2 mph /  5.1 km/h 8.0 mph /  12.9 km/h 97 % 0.8 in /  20.32 mm
03:27 8.5 °F /  -13.1 °C 8.1 °F /  -13.3 °C 1008.0 in /  34130.9 hPa SSW 6.4 mph /  10.3 km/h 6.4 mph /  10.3 km/h 97 % 0.8 in /  20.32 mm
03:33 8.6 °F /  -13 °C 8.2 °F /  -13.2 °C 1008.0 in /  34130.9 hPa SSW 1.4 mph /  2.3 km/h 9.7 mph /  15.6 km/h 97 % 0.5 in /  12.7 mm
03:39 8.6 °F /  -13 °C 8.2 °F /  -13.2 °C 1008.0 in /  34130.9 hPa SSW 3.2 mph /  5.1 km/h 6.4 mph /  10.3 km/h 97 % 0.5 in /  12.7 mm
03:45 8.6 °F /  -13 °C 8.2 °F /  -13.2 °C 1008.0 in /  34130.9 hPa WSW 3.2 mph /  5.1 km/h 6.4 mph /  10.3 km/h 97 % 0.8 in /  20.32 mm
03:51 8.7 °F /  -12.9 °C 8.3 °F /  -13.2 °C 1008.0 in /  34130.9 hPa SW 3.2 mph /  5.1 km/h 6.4 mph /  10.3 km/h 97 % 0.8 in /  20.32 mm
04:05 9.4 °F /  -12.6 °C 9.1 °F /  -12.7 °C 1007.7 in /  34120.7 hPa West 3.2 mph /  5.1 km/h 8.0 mph /  12.9 km/h 98 % 1.0 in /  25.4 mm
04:15 10.1 °F /  -12.2 °C 9.8 °F /  -12.3 °C 1007.7 in /  34120.7 hPa WSW 9.7 mph /  15.6 km/h 16.1 mph /  25.9 km/h 98 % 1.5 in /  38.1 mm
04:21 10.6 °F /  -11.9 °C 10.3 °F /  -12.1 °C 1007.7 in /  34120.7 hPa SW 14.3 mph /  23 km/h 17.7 mph /  28.5 km/h 98 % 1.5 in /  38.1 mm
04:27 10.9 °F /  -11.7 °C 10.6 °F /  -11.9 °C 1007.7 in /  34120.7 hPa SW 6.4 mph /  10.3 km/h 14.5 mph /  23.3 km/h 98 % 1.5 in /  38.1 mm
04:33 11.4 °F /  -11.4 °C 11.1 °F /  -11.6 °C 1007.7 in /  34120.7 hPa West 20.9 mph /  33.6 km/h 20.9 mph /  33.6 km/h 98 % 1.8 in /  45.72 mm
04:39 11.7 °F /  -11.3 °C 11.4 °F /  -11.4 °C 1007.3 in /  34107.2 hPa WSW 11.1 mph /  17.9 km/h 30.6 mph /  49.2 km/h 98 % 1.5 in /  38.1 mm
04:45 11.9 °F /  -11.2 °C 11.6 °F /  -11.3 °C 1007.3 in /  34107.2 hPa West 22.7 mph /  36.5 km/h 30.6 mph /  49.2 km/h 98 % 1.5 in /  38.1 mm
04:51 12.1 °F /  -11.1 °C 11.8 °F /  -11.2 °C 1007.3 in /  34107.2 hPa WNW 13.0 mph /  20.9 km/h 30.6 mph /  49.2 km/h 98 % 1.5 in /  38.1 mm
04:55 12.2 °F /  -11 °C 11.9 °F /  -11.2 °C 1007.3 in /  34107.2 hPa WSW 19.5 mph /  31.4 km/h 27.4 mph /  44.1 km/h 98 % 1.5 in /  38.1 mm
05:01 12.3 °F /  -10.9 °C 11.8 °F /  -11.2 °C 1007.3 in /  34107.2 hPa SW 20.9 mph /  33.6 km/h 27.4 mph /  44.1 km/h 97 % 1.5 in /  38.1 mm
05:07 12.4 °F /  -10.9 °C 11.9 °F /  -11.2 °C 1007.3 in /  34107.2 hPa WNW 27.4 mph /  44.1 km/h 40.2 mph /  64.7 km/h 97 % 1.3 in /  33.02 mm
05:14 12.5 °F /  -10.8 °C 11.9 °F /  -11.2 °C 1007.0 in /  34097 hPa WSW 27.4 mph /  44.1 km/h 35.4 mph /  57 km/h 96 % 1.0 in /  25.4 mm
05:18 12.5 °F /  -10.8 °C 11.9 °F /  -11.2 °C 1007.3 in /  34107.2 hPa WSW 19.5 mph /  31.4 km/h 24.1 mph /  38.8 km/h 96 % 0.8 in /  20.32 mm
05:26 12.6 °F /  -10.8 °C 12.0 °F /  -11.1 °C 1007.3 in /  34107.2 hPa West 28.8 mph /  46.3 km/h 35.4 mph /  57 km/h 96 % 0.8 in /  20.32 mm
05:28 12.6 °F /  -10.8 °C 12.0 °F /  -11.1 °C 1007.3 in /  34107.2 hPa WSW 20.9 mph /  33.6 km/h 35.4 mph /  57 km/h 96 % 0.8 in /  20.32 mm
05:30 12.6 °F /  -10.8 °C 11.8 °F /  -11.2 °C 1007.0 in /  34097 hPa WSW 19.5 mph /  31.4 km/h 32.2 mph /  51.8 km/h 95 % 0.5 in /  12.7 mm
05:32 12.6 °F /  -10.8 °C 12.0 °F /  -11.1 °C 1007.0 in /  34097 hPa SW 32.0 mph /  51.5 km/h 33.8 mph /  54.4 km/h 96 % 0.5 in /  12.7 mm
05:40 12.6 °F /  -10.8 °C 11.8 °F /  -11.2 °C 1007.3 in /  34107.2 hPa West 24.1 mph /  38.8 km/h 35.4 mph /  57 km/h 95 % 0.5 in /  12.7 mm
05:52 12.7 °F /  -10.7 °C 11.9 °F /  -11.2 °C 1007.0 in /  34097 hPa West 27.4 mph /  44.1 km/h 35.4 mph /  57 km/h 95 % 0.5 in /  12.7 mm
05:58 12.7 °F /  -10.7 °C 11.9 °F /  -11.2 °C 1007.3 in /  34107.2 hPa WSW 19.5 mph /  31.4 km/h 45.1 mph /  72.6 km/h 95 % 0.5 in /  12.7 mm
06:06 12.7 °F /  -10.7 °C 11.9 °F /  -11.2 °C 1007.3 in /  34107.2 hPa WSW 25.9 mph /  41.7 km/h 37.0 mph /  59.5 km/h 95 % 0.3 in /  7.62 mm
06:10 12.7 °F /  -10.7 °C 11.9 °F /  -11.2 °C 1007.3 in /  34107.2 hPa West 19.5 mph /  31.4 km/h 38.6 mph /  62.1 km/h 95 % 0.3 in /  7.62 mm
06:14 12.7 °F /  -10.7 °C 11.9 °F /  -11.2 °C 1007.3 in /  34107.2 hPa WSW 22.7 mph /  36.5 km/h 38.6 mph /  62.1 km/h 95 % 0.3 in /  7.62 mm
06:20 12.7 °F /  -10.7 °C 11.9 °F /  -11.2 °C 1007.3 in /  34107.2 hPa West 30.6 mph /  49.2 km/h 37.0 mph /  59.5 km/h 95 % 0.3 in /  7.62 mm
06:30 12.7 °F /  -10.7 °C 11.9 °F /  -11.2 °C 1007.3 in /  34107.2 hPa West 30.6 mph /  49.2 km/h 30.6 mph /  49.2 km/h 95 % 0.5 in /  12.7 mm
06:36 12.7 °F /  -10.7 °C 11.9 °F /  -11.2 °C 1007.3 in /  34107.2 hPa West 35.2 mph /  56.6 km/h 35.4 mph /  57 km/h 95 % 0.8 in /  20.32 mm
06:38 12.7 °F /  -10.7 °C 11.9 °F /  -11.2 °C 1007.3 in /  34107.2 hPa WNW 17.7 mph /  28.5 km/h 33.8 mph /  54.4 km/h 95 % 1.0 in /  25.4 mm
06:40 12.7 °F /  -10.7 °C 11.9 °F /  -11.2 °C 1007.0 in /  34097 hPa WSW 16.3 mph /  26.2 km/h 32.2 mph /  51.8 km/h 95 % 1.0 in /  25.4 mm
06:46 12.7 °F /  -10.7 °C 11.9 °F /  -11.2 °C 1007.0 in /  34097 hPa SW 22.7 mph /  36.5 km/h 38.6 mph /  62.1 km/h 95 % 1.3 in /  33.02 mm
06:48 12.7 °F /  -10.7 °C 11.9 °F /  -11.2 °C 1007.3 in /  34107.2 hPa West 20.9 mph /  33.6 km/h 33.8 mph /  54.4 km/h 95 % 1.5 in /  38.1 mm
06:54 12.7 °F /  -10.7 °C 11.9 °F /  -11.2 °C 1007.0 in /  34097 hPa WSW 28.8 mph /  46.3 km/h 40.2 mph /  64.7 km/h 95 % 1.5 in /  38.1 mm
07:00 12.6 °F /  -10.8 °C 11.8 °F /  -11.2 °C 1007.0 in /  34097 hPa WSW 27.4 mph /  44.1 km/h 29.0 mph /  46.7 km/h 95 % 1.5 in /  38.1 mm
07:06 12.6 °F /  -10.8 °C 11.8 °F /  -11.2 °C 1007.0 in /  34097 hPa WSW 19.5 mph /  31.4 km/h 24.1 mph /  38.8 km/h 95 % 1.8 in /  45.72 mm
07:12 12.6 °F /  -10.8 °C 11.8 °F /  -11.2 °C 1007.0 in /  34097 hPa West 25.9 mph /  41.7 km/h 29.0 mph /  46.7 km/h 95 % 1.8 in /  45.72 mm
07:14 12.6 °F /  -10.8 °C 11.8 °F /  -11.2 °C 1007.0 in /  34097 hPa WSW 20.9 mph /  33.6 km/h 30.6 mph /  49.2 km/h 95 % 2.0 in /  50.8 mm
07:20 12.6 °F /  -10.8 °C 11.8 °F /  -11.2 °C 1007.0 in /  34097 hPa West 22.7 mph /  36.5 km/h 49.9 mph /  80.3 km/h 95 % 2.0 in /  50.8 mm
07:26 12.6 °F /  -10.8 °C 11.8 °F /  -11.2 °C 1007.0 in /  34097 hPa SW 25.9 mph /  41.7 km/h 41.8 mph /  67.3 km/h 95 % 2.0 in /  50.8 mm
07:28 12.6 °F /  -10.8 °C 11.8 °F /  -11.2 °C 1007.0 in /  34097 hPa WSW 22.7 mph /  36.5 km/h 38.6 mph /  62.1 km/h 95 % 1.8 in /  45.72 mm
07:32 12.6 °F /  -10.8 °C 11.8 °F /  -11.2 °C 1007.0 in /  34097 hPa West 16.3 mph /  26.2 km/h 33.8 mph /  54.4 km/h 95 % 1.8 in /  45.72 mm
07:38 12.6 °F /  -10.8 °C 11.8 °F /  -11.2 °C 1007.3 in /  34107.2 hPa West 24.1 mph /  38.8 km/h 35.4 mph /  57 km/h 95 % 1.5 in /  38.1 mm
07:44 12.6 °F /  -10.8 °C 11.8 °F /  -11.2 °C 1007.3 in /  34107.2 hPa West 25.9 mph /  41.7 km/h 40.2 mph /  64.7 km/h 95 % 1.5 in /  38.1 mm
07:58 12.7 °F /  -10.7 °C 11.8 °F /  -11.2 °C 1007.3 in /  34107.2 hPa WSW 30.6 mph /  49.2 km/h 43.4 mph /  69.8 km/h 94 % 1.3 in /  33.02 mm
08:04 12.6 °F /  -10.8 °C 11.7 °F /  -11.3 °C 1007.3 in /  34107.2 hPa West 20.9 mph /  33.6 km/h 40.2 mph /  64.7 km/h 94 % 1.0 in /  25.4 mm
08:10 12.7 °F /  -10.7 °C 11.8 °F /  -11.2 °C 1007.3 in /  34107.2 hPa WNW 27.4 mph /  44.1 km/h 41.8 mph /  67.3 km/h 94 % 1.0 in /  25.4 mm
08:18 12.7 °F /  -10.7 °C 11.8 °F /  -11.2 °C 1007.3 in /  34107.2 hPa WSW 33.8 mph /  54.4 km/h 41.8 mph /  67.3 km/h 94 % 0.8 in /  20.32 mm
08:22 12.7 °F /  -10.7 °C 11.8 °F /  -11.2 °C 1007.0 in /  34097 hPa West 24.1 mph /  38.8 km/h 45.1 mph /  72.6 km/h 94 % 0.8 in /  20.32 mm
08:28 12.6 °F /  -10.8 °C 11.7 °F /  -11.3 °C 1007.3 in /  34107.2 hPa West 35.2 mph /  56.6 km/h 45.1 mph /  72.6 km/h 94 % 0.5 in /  12.7 mm
08:34 12.6 °F /  -10.8 °C 11.7 °F /  -11.3 °C 1007.3 in /  34107.2 hPa West 40.4 mph /  65 km/h 40.4 mph /  65 km/h 94 % 0.5 in /  12.7 mm
08:40 12.6 °F /  -10.8 °C 11.7 °F /  -11.3 °C 1007.3 in /  34107.2 hPa West 41.7 mph /  67.1 km/h 48.3 mph /  77.7 km/h 94 % 0.5 in /  12.7 mm
08:42 12.6 °F /  -10.8 °C 11.7 °F /  -11.3 °C 1007.3 in /  34107.2 hPa West 19.5 mph /  31.4 km/h 46.7 mph /  75.2 km/h 94 % 0.5 in /  12.7 mm
08:48 12.6 °F /  -10.8 °C 11.7 °F /  -11.3 °C 1007.3 in /  34107.2 hPa West 22.7 mph /  36.5 km/h 54.7 mph /  88 km/h 94 % 0.5 in /  12.7 mm
08:54 12.6 °F /  -10.8 °C 11.5 °F /  -11.4 °C 1007.7 in /  34120.7 hPa WSW 33.8 mph /  54.4 km/h 48.3 mph /  77.7 km/h 93 % 0.5 in /  12.7 mm
09:00 12.6 °F /  -10.8 °C 11.5 °F /  -11.4 °C 1007.7 in /  34120.7 hPa West 37.0 mph /  59.5 km/h 40.2 mph /  64.7 km/h 93 % 0.5 in /  12.7 mm
09:06 12.6 °F /  -10.8 °C 11.5 °F /  -11.4 °C 1007.7 in /  34120.7 hPa WSW 24.1 mph /  38.8 km/h 51.5 mph /  82.9 km/h 93 % 0.5 in /  12.7 mm
09:12 12.6 °F /  -10.8 °C 11.5 °F /  -11.4 °C 1007.7 in /  34120.7 hPa WSW 27.4 mph /  44.1 km/h 56.3 mph /  90.6 km/h 93 % 0.5 in /  12.7 mm
09:18 12.6 °F /  -10.8 °C 11.5 °F /  -11.4 °C 1007.7 in /  34120.7 hPa WSW 33.8 mph /  54.4 km/h 53.1 mph /  85.5 km/h 93 % 0.3 in /  7.62 mm
09:24 12.7 °F /  -10.7 °C 11.4 °F /  -11.4 °C 1008.0 in /  34130.9 hPa SW 28.8 mph /  46.3 km/h 40.2 mph /  64.7 km/h 92 % 0.3 in /  7.62 mm
09:30 12.6 °F /  -10.8 °C 11.5 °F /  -11.4 °C 1007.7 in /  34120.7 hPa West 25.9 mph /  41.7 km/h 46.7 mph /  75.2 km/h 93 % 0.3 in /  7.62 mm
09:36 12.6 °F /  -10.8 °C 11.5 °F /  -11.4 °C 1007.7 in /  34120.7 hPa WSW 43.6 mph /  70.2 km/h 54.7 mph /  88 km/h 93 % 0.3 in /  7.62 mm
09:42 12.6 °F /  -10.8 °C 11.5 °F /  -11.4 °C 1008.0 in /  34130.9 hPa WSW 25.9 mph /  41.7 km/h 48.3 mph /  77.7 km/h 93 % 0.0 in /  0 mm
09:48 12.6 °F /  -10.8 °C 11.5 °F /  -11.4 °C 1008.0 in /  34130.9 hPa SW 20.9 mph /  33.6 km/h 41.8 mph /  67.3 km/h 93 % 0.0 in /  0 mm
09:54 12.6 °F /  -10.8 °C 11.3 °F /  -11.5 °C 1008.0 in /  34130.9 hPa SW 22.7 mph /  36.5 km/h 41.8 mph /  67.3 km/h 92 % 0.0 in /  0 mm
10:00 12.6 °F /  -10.8 °C 11.3 °F /  -11.5 °C 1008.4 in /  34144.4 hPa WSW 27.4 mph /  44.1 km/h 62.8 mph /  101.1 km/h 92 % 0.0 in /  0 mm
10:04 12.6 °F /  -10.8 °C 11.3 °F /  -11.5 °C 1008.4 in /  34144.4 hPa WSW 32.0 mph /  51.5 km/h 43.4 mph /  69.8 km/h 92 % 0.0 in /  0 mm
10:10 12.6 °F /  -10.8 °C 11.3 °F /  -11.5 °C 1008.4 in /  34144.4 hPa SSW 7.9 mph /  12.7 km/h 41.8 mph /  67.3 km/h 92 % 0.0 in /  0 mm
10:12 12.6 °F /  -10.8 °C 11.3 °F /  -11.5 °C 1008.4 in /  34144.4 hPa WSW 22.7 mph /  36.5 km/h 41.8 mph /  67.3 km/h 92 % 0.0 in /  0 mm
10:18 12.4 °F /  -10.9 °C 11.3 °F /  -11.5 °C 1008.4 in /  34144.4 hPa West 28.8 mph /  46.3 km/h 37.0 mph /  59.5 km/h 93 % 0.0 in /  0 mm
10:20 12.4 °F /  -10.9 °C 11.3 °F /  -11.5 °C 1008.4 in /  34144.4 hPa WSW 32.0 mph /  51.5 km/h 35.4 mph /  57 km/h 93 % 0.0 in /  0 mm
10:26 12.4 °F /  -10.9 °C 11.3 °F /  -11.5 °C 1008.0 in /  34130.9 hPa NW 17.7 mph /  28.5 km/h 38.6 mph /  62.1 km/h 93 % 0.0 in /  0 mm
10:32 12.4 °F /  -10.9 °C 11.3 °F /  -11.5 °C 1008.4 in /  34144.4 hPa West 27.4 mph /  44.1 km/h 38.6 mph /  62.1 km/h 93 % 0.0 in /  0 mm
10:38 12.4 °F /  -10.9 °C 11.3 °F /  -11.5 °C 1008.4 in /  34144.4 hPa SW 14.3 mph /  23 km/h 35.4 mph /  57 km/h 93 % 0.0 in /  0 mm
10:44 12.4 °F /  -10.9 °C 11.3 °F /  -11.5 °C 1008.4 in /  34144.4 hPa WSW 25.9 mph /  41.7 km/h 43.4 mph /  69.8 km/h 93 % 0.0 in /  0 mm
10:50 12.4 °F /  -10.9 °C 11.3 °F /  -11.5 °C 1008.7 in /  34154.6 hPa West 22.7 mph /  36.5 km/h 43.4 mph /  69.8 km/h 93 % 0.0 in /  0 mm
10:56 12.4 °F /  -10.9 °C 11.3 °F /  -11.5 °C 1008.7 in /  34154.6 hPa SW 28.8 mph /  46.3 km/h 33.8 mph /  54.4 km/h 93 % 0.0 in /  0 mm
11:02 12.3 °F /  -10.9 °C 11.4 °F /  -11.4 °C 1008.7 in /  34154.6 hPa WSW 17.7 mph /  28.5 km/h 32.2 mph /  51.8 km/h 94 % 0.0 in /  0 mm
11:08 12.3 °F /  -10.9 °C 11.4 °F /  -11.4 °C 1008.7 in /  34154.6 hPa West 28.8 mph /  46.3 km/h 33.8 mph /  54.4 km/h 94 % 0.0 in /  0 mm
11:18 12.3 °F /  -10.9 °C 11.4 °F /  -11.4 °C 1008.7 in /  34154.6 hPa SW 38.5 mph /  62 km/h 43.4 mph /  69.8 km/h 94 % 0.0 in /  0 mm
11:24 12.2 °F /  -11 °C 11.3 °F /  -11.5 °C 1008.7 in /  34154.6 hPa SW 28.8 mph /  46.3 km/h 29.0 mph /  46.7 km/h 94 % 0.0 in /  0 mm
11:30 12.3 °F /  -10.9 °C 11.4 °F /  -11.4 °C 1008.7 in /  34154.6 hPa SSW 17.7 mph /  28.5 km/h 40.2 mph /  64.7 km/h 94 % 0.0 in /  0 mm
11:36 12.3 °F /  -10.9 °C 11.4 °F /  -11.4 °C 1008.7 in /  34154.6 hPa West 19.5 mph /  31.4 km/h 22.5 mph /  36.2 km/h 94 % 0.0 in /  0 mm
11:44 12.3 °F /  -10.9 °C 11.5 °F /  -11.4 °C 1008.4 in /  34144.4 hPa West 22.7 mph /  36.5 km/h 41.8 mph /  67.3 km/h 95 % 0.0 in /  0 mm
11:50 12.3 °F /  -10.9 °C 11.5 °F /  -11.4 °C 1008.7 in /  34154.6 hPa West 19.5 mph /  31.4 km/h 30.6 mph /  49.2 km/h 95 % 0.0 in /  0 mm
11:54 12.3 °F /  -10.9 °C 11.5 °F /  -11.4 °C 1008.4 in /  34144.4 hPa WSW 32.0 mph /  51.5 km/h 43.4 mph /  69.8 km/h 95 % 0.0 in /  0 mm
11:56 12.3 °F /  -10.9 °C 11.5 °F /  -11.4 °C 1008.4 in /  34144.4 hPa WSW 32.0 mph /  51.5 km/h 38.6 mph /  62.1 km/h 95 % 0.0 in /  0 mm
12:04 12.2 °F /  -11 °C 11.4 °F /  -11.4 °C 1008.4 in /  34144.4 hPa WSW 17.7 mph /  28.5 km/h 37.0 mph /  59.5 km/h 95 % 0.0 in /  0 mm
12:06 12.2 °F /  -11 °C 11.4 °F /  -11.4 °C 1008.4 in /  34144.4 hPa WSW 19.5 mph /  31.4 km/h 41.8 mph /  67.3 km/h 95 % 0.0 in /  0 mm
12:10 12.2 °F /  -11 °C 11.4 °F /  -11.4 °C 1008.4 in /  34144.4 hPa WSW 16.3 mph /  26.2 km/h 32.2 mph /  51.8 km/h 95 % 0.0 in /  0 mm
12:16 12.2 °F /  -11 °C 11.4 °F /  -11.4 °C 1008.0 in /  34130.9 hPa WSW 24.1 mph /  38.8 km/h 24.1 mph /  38.8 km/h 95 % 0.3 in /  7.62 mm
12:18 12.2 °F /  -11 °C 11.4 °F /  -11.4 °C 1008.4 in /  34144.4 hPa SW 9.7 mph /  15.6 km/h 40.2 mph /  64.7 km/h 95 % 0.3 in /  7.62 mm
12:22 12.2 °F /  -11 °C 11.4 °F /  -11.4 °C 1008.0 in /  34130.9 hPa WSW 19.5 mph /  31.4 km/h 37.0 mph /  59.5 km/h 95 % 0.3 in /  7.62 mm
12:24 12.2 °F /  -11 °C 11.4 °F /  -11.4 °C 1008.0 in /  34130.9 hPa WSW 22.7 mph /  36.5 km/h 32.2 mph /  51.8 km/h 95 % 0.3 in /  7.62 mm
12:30 12.2 °F /  -11 °C 11.4 °F /  -11.4 °C 1008.4 in /  34144.4 hPa WSW 14.3 mph /  23 km/h 37.0 mph /  59.5 km/h 95 % 0.3 in /  7.62 mm
12:36 12.2 °F /  -11 °C 11.4 °F /  -11.4 °C 1008.4 in /  34144.4 hPa SW 17.7 mph /  28.5 km/h 38.6 mph /  62.1 km/h 95 % 0.3 in /  7.62 mm
12:42 12.2 °F /  -11 °C 11.4 °F /  -11.4 °C 1008.4 in /  34144.4 hPa SW 24.1 mph /  38.8 km/h 38.6 mph /  62.1 km/h 95 % 0.3 in /  7.62 mm
12:48 12.3 °F /  -10.9 °C 11.5 °F /  -11.4 °C 1008.4 in /  34144.4 hPa WSW 19.5 mph /  31.4 km/h 32.2 mph /  51.8 km/h 95 % 0.3 in /  7.62 mm
12:56 12.3 °F /  -10.9 °C 11.5 °F /  -11.4 °C 1008.0 in /  34130.9 hPa WSW 24.1 mph /  38.8 km/h 33.8 mph /  54.4 km/h 95 % 0.3 in /  7.62 mm
13:02 12.3 °F /  -10.9 °C 11.5 °F /  -11.4 °C 1008.0 in /  34130.9 hPa SW 22.7 mph /  36.5 km/h 46.7 mph /  75.2 km/h 95 % 0.5 in /  12.7 mm
13:06 12.3 °F /  -10.9 °C 11.5 °F /  -11.4 °C 1008.0 in /  34130.9 hPa West 9.7 mph /  15.6 km/h 30.6 mph /  49.2 km/h 95 % 0.5 in /  12.7 mm
13:20 12.3 °F /  -10.9 °C 11.5 °F /  -11.4 °C 1007.3 in /  34107.2 hPa WSW 37.0 mph /  59.5 km/h 49.9 mph /  80.3 km/h 95 % 0.3 in /  7.62 mm
13:26 12.3 °F /  -10.9 °C 11.5 °F /  -11.4 °C 1007.3 in /  34107.2 hPa WSW 22.7 mph /  36.5 km/h 33.8 mph /  54.4 km/h 95 % 0.3 in /  7.62 mm
13:34 12.3 °F /  -10.9 °C 11.5 °F /  -11.4 °C 1007.3 in /  34107.2 hPa West 25.9 mph /  41.7 km/h 41.8 mph /  67.3 km/h 95 % 0.3 in /  7.62 mm
13:38 12.3 °F /  -10.9 °C 11.5 °F /  -11.4 °C 1007.3 in /  34107.2 hPa West 24.1 mph /  38.8 km/h 35.4 mph /  57 km/h 95 % 0.3 in /  7.62 mm
13:44 12.3 °F /  -10.9 °C 11.5 °F /  -11.4 °C 1007.0 in /  34097 hPa West 17.7 mph /  28.5 km/h 45.1 mph /  72.6 km/h 95 % 0.3 in /  7.62 mm
13:50 12.3 °F /  -10.9 °C 11.5 °F /  -11.4 °C 1007.3 in /  34107.2 hPa West 25.9 mph /  41.7 km/h 38.6 mph /  62.1 km/h 95 % 0.3 in /  7.62 mm
13:56 12.3 °F /  -10.9 °C 11.5 °F /  -11.4 °C 1007.3 in /  34107.2 hPa SW 16.3 mph /  26.2 km/h 37.0 mph /  59.5 km/h 95 % 0.3 in /  7.62 mm
14:02 12.3 °F /  -10.9 °C 11.5 °F /  -11.4 °C 1007.3 in /  34107.2 hPa WSW 17.7 mph /  28.5 km/h 37.0 mph /  59.5 km/h 95 % 0.0 in /  0 mm
14:06 12.3 °F /  -10.9 °C 11.4 °F /  -11.4 °C 1007.3 in /  34107.2 hPa SW 20.9 mph /  33.6 km/h 48.3 mph /  77.7 km/h 94 % 0.0 in /  0 mm
14:08 12.3 °F /  -10.9 °C 11.4 °F /  -11.4 °C 1007.0 in /  34097 hPa SW 30.6 mph /  49.2 km/h 40.2 mph /  64.7 km/h 94 % 0.0 in /  0 mm
14:16 12.3 °F /  -10.9 °C 11.4 °F /  -11.4 °C 1007.0 in /  34097 hPa WSW 35.2 mph /  56.6 km/h 37.0 mph /  59.5 km/h 94 % 0.0 in /  0 mm
14:24 12.3 °F /  -10.9 °C 11.4 °F /  -11.4 °C 1007.0 in /  34097 hPa West 19.5 mph /  31.4 km/h 32.2 mph /  51.8 km/h 94 % 0.3 in /  7.62 mm
14:32 12.3 °F /  -10.9 °C 11.4 °F /  -11.4 °C 1007.0 in /  34097 hPa WSW 19.5 mph /  31.4 km/h 32.2 mph /  51.8 km/h 94 % 0.3 in /  7.62 mm
14:38 12.3 °F /  -10.9 °C 11.5 °F /  -11.4 °C 1006.7 in /  34086.9 hPa WSW 37.0 mph /  59.5 km/h 46.7 mph /  75.2 km/h 95 % 0.3 in /  7.62 mm
14:48 12.3 °F /  -10.9 °C 11.5 °F /  -11.4 °C 1006.7 in /  34086.9 hPa WSW 19.5 mph /  31.4 km/h 37.0 mph /  59.5 km/h 95 % 0.3 in /  7.62 mm
14:50 12.3 °F /  -10.9 °C 11.5 °F /  -11.4 °C 1007.0 in /  34097 hPa West 24.1 mph /  38.8 km/h 27.4 mph /  44.1 km/h 95 % 0.3 in /  7.62 mm
14:56 12.3 °F /  -10.9 °C 11.5 °F /  -11.4 °C 1006.7 in /  34086.9 hPa WSW 17.7 mph /  28.5 km/h 37.0 mph /  59.5 km/h 95 % 0.3 in /  7.62 mm
15:00 12.3 °F /  -10.9 °C 11.5 °F /  -11.4 °C 1006.7 in /  34086.9 hPa WSW 16.3 mph /  26.2 km/h 43.4 mph /  69.8 km/h 95 % 0.3 in /  7.62 mm
15:02 12.3 °F /  -10.9 °C 11.5 °F /  -11.4 °C 1006.7 in /  34086.9 hPa SW 14.3 mph /  23 km/h 24.1 mph /  38.8 km/h 95 % 0.3 in /  7.62 mm
15:04 12.3 °F /  -10.9 °C 11.5 °F /  -11.4 °C 1006.7 in /  34086.9 hPa SW 19.5 mph /  31.4 km/h 35.4 mph /  57 km/h 95 % 0.3 in /  7.62 mm
15:10 12.3 °F /  -10.9 °C 11.5 °F /  -11.4 °C 1006.7 in /  34086.9 hPa West 17.7 mph /  28.5 km/h 33.8 mph /  54.4 km/h 95 % 0.5 in /  12.7 mm
15:11 12.3 °F /  -10.9 °C 11.5 °F /  -11.4 °C 1006.7 in /  34086.9 hPa West 14.3 mph /  23 km/h 37.0 mph /  59.5 km/h 95 % 0.5 in /  12.7 mm
15:18 12.3 °F /  -10.9 °C 11.7 °F /  -11.3 °C 1006.7 in /  34086.9 hPa West 22.7 mph /  36.5 km/h 35.4 mph /  57 km/h 96 % 0.5 in /  12.7 mm
15:27 12.3 °F /  -10.9 °C 11.7 °F /  -11.3 °C 1006.7 in /  34086.9 hPa SW 16.3 mph /  26.2 km/h 32.2 mph /  51.8 km/h 96 % 0.3 in /  7.62 mm
15:33 12.3 °F /  -10.9 °C 11.5 °F /  -11.4 °C 1006.3 in /  34073.3 hPa SW 32.0 mph /  51.5 km/h 40.2 mph /  64.7 km/h 95 % 0.3 in /  7.62 mm
15:39 12.4 °F /  -10.9 °C 11.6 °F /  -11.3 °C 1006.3 in /  34073.3 hPa West 20.9 mph /  33.6 km/h 40.2 mph /  64.7 km/h 95 % 0.5 in /  12.7 mm
15:47 12.6 °F /  -10.8 °C 11.7 °F /  -11.3 °C 1006.3 in /  34073.3 hPa WSW 27.4 mph /  44.1 km/h 40.2 mph /  64.7 km/h 94 % 0.5 in /  12.7 mm
15:53 12.6 °F /  -10.8 °C 11.7 °F /  -11.3 °C 1006.3 in /  34073.3 hPa WSW 22.7 mph /  36.5 km/h 30.6 mph /  49.2 km/h 94 % 0.5 in /  12.7 mm
16:01 12.6 °F /  -10.8 °C 11.7 °F /  -11.3 °C 1006.3 in /  34073.3 hPa SW 22.7 mph /  36.5 km/h 29.0 mph /  46.7 km/h 94 % 0.5 in /  12.7 mm
16:03 12.6 °F /  -10.8 °C 11.7 °F /  -11.3 °C 1006.3 in /  34073.3 hPa WSW 25.9 mph /  41.7 km/h 32.2 mph /  51.8 km/h 94 % 0.5 in /  12.7 mm
16:11 12.7 °F /  -10.7 °C 11.8 °F /  -11.2 °C 1006.3 in /  34073.3 hPa WSW 19.5 mph /  31.4 km/h 48.3 mph /  77.7 km/h 94 % 0.3 in /  7.62 mm
16:17 12.7 °F /  -10.7 °C 11.6 °F /  -11.3 °C 1006.3 in /  34073.3 hPa WSW 19.5 mph /  31.4 km/h 38.6 mph /  62.1 km/h 93 % 0.3 in /  7.62 mm
16:29 12.7 °F /  -10.7 °C 11.6 °F /  -11.3 °C 1006.3 in /  34073.3 hPa WSW 24.1 mph /  38.8 km/h 33.8 mph /  54.4 km/h 93 % 0.3 in /  7.62 mm
16:35 12.8 °F /  -10.7 °C 11.7 °F /  -11.3 °C 1006.0 in /  34063.2 hPa WSW 24.1 mph /  38.8 km/h 35.4 mph /  57 km/h 93 % 0.0 in /  0 mm
16:41 12.8 °F /  -10.7 °C 11.7 °F /  -11.3 °C 1006.0 in /  34063.2 hPa SW 14.3 mph /  23 km/h 43.4 mph /  69.8 km/h 93 % 0.0 in /  0 mm
16:47 12.8 °F /  -10.7 °C 11.7 °F /  -11.3 °C 1006.0 in /  34063.2 hPa WSW 20.9 mph /  33.6 km/h 38.6 mph /  62.1 km/h 93 % 0.0 in /  0 mm
16:53 12.8 °F /  -10.7 °C 11.5 °F /  -11.4 °C 1006.0 in /  34063.2 hPa WSW 24.1 mph /  38.8 km/h 35.4 mph /  57 km/h 92 % 0.0 in /  0 mm
17:01 12.7 °F /  -10.7 °C 11.6 °F /  -11.3 °C 1006.0 in /  34063.2 hPa WSW 30.6 mph /  49.2 km/h 30.6 mph /  49.2 km/h 93 % 0.0 in /  0 mm
17:03 12.7 °F /  -10.7 °C 11.6 °F /  -11.3 °C 1006.0 in /  34063.2 hPa WSW 17.7 mph /  28.5 km/h 35.4 mph /  57 km/h 93 % 0.0 in /  0 mm
17:09 12.7 °F /  -10.7 °C 11.4 °F /  -11.4 °C 1006.0 in /  34063.2 hPa SW 27.4 mph /  44.1 km/h 41.8 mph /  67.3 km/h 92 % 0.0 in /  0 mm
17:11 12.8 °F /  -10.7 °C 11.5 °F /  -11.4 °C 1006.0 in /  34063.2 hPa WSW 20.9 mph /  33.6 km/h 38.6 mph /  62.1 km/h 92 % 0.0 in /  0 mm
17:13 12.8 °F /  -10.7 °C 11.5 °F /  -11.4 °C 1006.0 in /  34063.2 hPa WSW 28.8 mph /  46.3 km/h 35.4 mph /  57 km/h 92 % 0.0 in /  0 mm
17:17 12.8 °F /  -10.7 °C 11.5 °F /  -11.4 °C 1006.0 in /  34063.2 hPa WSW 24.1 mph /  38.8 km/h 43.4 mph /  69.8 km/h 92 % 0.0 in /  0 mm
17:23 12.9 °F /  -10.6 °C 11.5 °F /  -11.4 °C 1006.0 in /  34063.2 hPa SW 25.9 mph /  41.7 km/h 48.3 mph /  77.7 km/h 91 % 0.0 in /  0 mm
17:30 12.9 °F /  -10.6 °C 11.5 °F /  -11.4 °C 1006.0 in /  34063.2 hPa South 13.0 mph /  20.9 km/h 40.2 mph /  64.7 km/h 91 % 0.0 in /  0 mm
17:36 12.9 °F /  -10.6 °C 11.5 °F /  -11.4 °C 1006.0 in /  34063.2 hPa West 20.9 mph /  33.6 km/h 41.8 mph /  67.3 km/h 91 % 0.0 in /  0 mm
17:37 13.0 °F /  -10.6 °C 11.4 °F /  -11.4 °C 1005.6 in /  34049.6 hPa WSW 27.4 mph /  44.1 km/h 41.8 mph /  67.3 km/h 90 % 0.0 in /  0 mm
17:43 13.1 °F /  -10.5 °C 11.5 °F /  -11.4 °C 1006.0 in /  34063.2 hPa SW 50.0 mph /  80.5 km/h 50.0 mph /  80.5 km/h 90 % 0.0 in /  0 mm
17:51 13.1 °F /  -10.5 °C 11.3 °F /  -11.5 °C 1006.0 in /  34063.2 hPa WSW 32.0 mph /  51.5 km/h 33.8 mph /  54.4 km/h 89 % 0.0 in /  0 mm
17:53 13.1 °F /  -10.5 °C 11.3 °F /  -11.5 °C 1006.0 in /  34063.2 hPa West 20.9 mph /  33.6 km/h 33.8 mph /  54.4 km/h 89 % 0.0 in /  0 mm
17:59 12.9 °F /  -10.6 °C 11.3 °F /  -11.5 °C 1006.0 in /  34063.2 hPa West 11.1 mph /  17.9 km/h 43.4 mph /  69.8 km/h 90 % 0.0 in /  0 mm
18:05 12.7 °F /  -10.7 °C 11.3 °F /  -11.5 °C 1006.0 in /  34063.2 hPa SW 27.4 mph /  44.1 km/h 38.6 mph /  62.1 km/h 91 % 0.3 in /  7.62 mm
18:07 12.6 °F /  -10.8 °C 11.2 °F /  -11.6 °C 1005.6 in /  34049.6 hPa SW 20.9 mph /  33.6 km/h 43.4 mph /  69.8 km/h 91 % 0.3 in /  7.62 mm
18:11 12.5 °F /  -10.8 °C 11.2 °F /  -11.6 °C 1005.6 in /  34049.6 hPa SW 24.1 mph /  38.8 km/h 38.6 mph /  62.1 km/h 92 % 0.3 in /  7.62 mm
18:25 12.4 °F /  -10.9 °C 11.1 °F /  -11.6 °C 1005.6 in /  34049.6 hPa WSW 17.7 mph /  28.5 km/h 32.2 mph /  51.8 km/h 92 % 0.3 in /  7.62 mm
18:31 12.4 °F /  -10.9 °C 11.3 °F /  -11.5 °C 1005.6 in /  34049.6 hPa West 17.7 mph /  28.5 km/h 29.0 mph /  46.7 km/h 93 % 0.5 in /  12.7 mm
18:33 12.4 °F /  -10.9 °C 11.3 °F /  -11.5 °C 1005.6 in /  34049.6 hPa WSW 33.8 mph /  54.4 km/h 35.4 mph /  57 km/h 93 % 0.5 in /  12.7 mm
18:37 12.4 °F /  -10.9 °C 11.3 °F /  -11.5 °C 1005.6 in /  34049.6 hPa West 27.4 mph /  44.1 km/h 30.6 mph /  49.2 km/h 93 % 0.5 in /  12.7 mm
18:57 12.1 °F /  -11.1 °C 11.2 °F /  -11.6 °C 1005.6 in /  34049.6 hPa SW 40.4 mph /  65 km/h 40.4 mph /  65 km/h 94 % 0.5 in /  12.7 mm
19:05 12.1 °F /  -11.1 °C 11.2 °F /  -11.6 °C 1005.6 in /  34049.6 hPa SW 33.8 mph /  54.4 km/h 33.8 mph /  54.4 km/h 94 % 0.5 in /  12.7 mm
19:07 12.1 °F /  -11.1 °C 11.2 °F /  -11.6 °C 1005.6 in /  34049.6 hPa WSW 20.9 mph /  33.6 km/h 30.6 mph /  49.2 km/h 94 % 0.5 in /  12.7 mm
19:11 12.0 °F /  -11.1 °C 11.2 °F /  -11.6 °C 1005.6 in /  34049.6 hPa WSW 16.3 mph /  26.2 km/h 30.6 mph /  49.2 km/h 95 % 0.5 in /  12.7 mm
19:17 12.0 °F /  -11.1 °C 11.2 °F /  -11.6 °C 1005.6 in /  34049.6 hPa West 19.5 mph /  31.4 km/h 32.2 mph /  51.8 km/h 95 % 0.5 in /  12.7 mm
19:19 12.0 °F /  -11.1 °C 11.2 °F /  -11.6 °C 1005.6 in /  34049.6 hPa West 16.3 mph /  26.2 km/h 25.7 mph /  41.4 km/h 95 % 0.5 in /  12.7 mm
19:23 12.0 °F /  -11.1 °C 11.2 °F /  -11.6 °C 1005.6 in /  34049.6 hPa SW 22.7 mph /  36.5 km/h 33.8 mph /  54.4 km/h 95 % 0.5 in /  12.7 mm
19:31 12.0 °F /  -11.1 °C 11.2 °F /  -11.6 °C 1005.6 in /  34049.6 hPa WSW 20.9 mph /  33.6 km/h 35.4 mph /  57 km/h 95 % 0.5 in /  12.7 mm
19:37 12.0 °F /  -11.1 °C 11.2 °F /  -11.6 °C 1006.0 in /  34063.2 hPa WSW 33.8 mph /  54.4 km/h 38.6 mph /  62.1 km/h 95 % 0.5 in /  12.7 mm
19:39 12.0 °F /  -11.1 °C 11.2 °F /  -11.6 °C 1006.0 in /  34063.2 hPa WSW 19.5 mph /  31.4 km/h 43.4 mph /  69.8 km/h 95 % 0.5 in /  12.7 mm
19:45 12.0 °F /  -11.1 °C 11.2 °F /  -11.6 °C 1005.6 in /  34049.6 hPa WSW 24.1 mph /  38.8 km/h 43.4 mph /  69.8 km/h 95 % 0.3 in /  7.62 mm
19:54 12.0 °F /  -11.1 °C 11.2 °F /  -11.6 °C 1006.0 in /  34063.2 hPa SW 24.1 mph /  38.8 km/h 29.0 mph /  46.7 km/h 95 % 0.5 in /  12.7 mm
19:59 12.0 °F /  -11.1 °C 11.2 °F /  -11.6 °C 1005.6 in /  34049.6 hPa West 19.5 mph /  31.4 km/h 38.6 mph /  62.1 km/h 95 % 0.5 in /  12.7 mm
20:05 12.0 °F /  -11.1 °C 11.4 °F /  -11.4 °C 1006.0 in /  34063.2 hPa West 19.5 mph /  31.4 km/h 32.2 mph /  51.8 km/h 96 % 0.5 in /  12.7 mm
20:11 12.0 °F /  -11.1 °C 11.4 °F /  -11.4 °C 1006.0 in /  34063.2 hPa WSW 17.7 mph /  28.5 km/h 33.8 mph /  54.4 km/h 96 % 0.5 in /  12.7 mm
20:17 12.1 °F /  -11.1 °C 11.5 °F /  -11.4 °C 1006.3 in /  34073.3 hPa WNW 28.8 mph /  46.3 km/h 35.4 mph /  57 km/h 96 % 0.5 in /  12.7 mm
20:23 11.8 °F /  -11.2 °C 10.9 °F /  -11.7 °C 1006.3 in /  34073.3 hPa NW 28.8 mph /  46.3 km/h 45.1 mph /  72.6 km/h 94 % 1.0 in /  25.4 mm
20:29 11.2 °F /  -11.6 °C 10.1 °F /  -12.2 °C 1006.7 in /  34086.9 hPa NW 22.7 mph /  36.5 km/h 37.0 mph /  59.5 km/h 93 % 1.3 in /  33.02 mm
20:36 11.1 °F /  -11.6 °C 9.8 °F /  -12.3 °C 1006.7 in /  34086.9 hPa WNW 25.9 mph /  41.7 km/h 37.0 mph /  59.5 km/h 92 % 1.3 in /  33.02 mm
20:37 10.8 °F /  -11.8 °C 9.6 °F /  -12.4 °C 1006.7 in /  34086.9 hPa West 27.4 mph /  44.1 km/h 38.6 mph /  62.1 km/h 92 % 1.3 in /  33.02 mm
20:49 10.6 °F /  -11.9 °C 9.0 °F /  -12.8 °C 1006.3 in /  34073.3 hPa SW 13.0 mph /  20.9 km/h 22.5 mph /  36.2 km/h 90 % 1.0 in /  25.4 mm
20:55 10.7 °F /  -11.8 °C 8.8 °F /  -12.9 °C 1006.7 in /  34086.9 hPa West 19.5 mph /  31.4 km/h 25.7 mph /  41.4 km/h 88 % 0.8 in /  20.32 mm
21:01 10.6 °F /  -11.9 °C 8.5 °F /  -13.1 °C 1006.7 in /  34086.9 hPa NW 16.3 mph /  26.2 km/h 20.9 mph /  33.6 km/h 87 % 0.8 in /  20.32 mm
21:07 10.6 °F /  -11.9 °C 8.5 °F /  -13.1 °C 1006.7 in /  34086.9 hPa WNW 14.3 mph /  23 km/h 25.7 mph /  41.4 km/h 87 % 0.8 in /  20.32 mm
21:13 10.3 °F /  -12.1 °C 8.4 °F /  -13.1 °C 1007.0 in /  34097 hPa WNW 14.3 mph /  23 km/h 17.7 mph /  28.5 km/h 88 % 0.5 in /  12.7 mm
21:19 10.3 °F /  -12.1 °C 8.4 °F /  -13.1 °C 1007.0 in /  34097 hPa West 16.3 mph /  26.2 km/h 20.9 mph /  33.6 km/h 88 % 0.3 in /  7.62 mm
21:25 10.2 °F /  -12.1 °C 8.3 °F /  -13.2 °C 1007.0 in /  34097 hPa West 7.9 mph /  12.7 km/h 14.5 mph /  23.3 km/h 88 % 0.0 in /  0 mm
21:31 10.2 °F /  -12.1 °C 8.3 °F /  -13.2 °C 1007.0 in /  34097 hPa WNW 9.7 mph /  15.6 km/h 20.9 mph /  33.6 km/h 88 % 0.0 in /  0 mm
21:37 10.1 °F /  -12.2 °C 8.2 °F /  -13.2 °C 1007.3 in /  34107.2 hPa West 11.1 mph /  17.9 km/h 17.7 mph /  28.5 km/h 88 % 0.0 in /  0 mm
21:39 10.1 °F /  -12.2 °C 8.2 °F /  -13.2 °C 1007.3 in /  34107.2 hPa WSW 6.4 mph /  10.3 km/h 16.1 mph /  25.9 km/h 88 % 0.0 in /  0 mm
21:45 9.9 °F /  -12.3 °C 8.2 °F /  -13.2 °C 1007.3 in /  34107.2 hPa WNW 16.3 mph /  26.2 km/h 24.1 mph /  38.8 km/h 89 % 0.0 in /  0 mm
21:51 9.8 °F /  -12.3 °C 8.1 °F /  -13.3 °C 1007.7 in /  34120.7 hPa West 14.3 mph /  23 km/h 20.9 mph /  33.6 km/h 89 % 0.0 in /  0 mm
21:57 9.7 °F /  -12.4 °C 8.0 °F /  -13.3 °C 1007.7 in /  34120.7 hPa West 11.1 mph /  17.9 km/h 19.3 mph /  31.1 km/h 89 % 0.0 in /  0 mm
22:13 9.7 °F /  -12.4 °C 8.0 °F /  -13.3 °C 1008.0 in /  34130.9 hPa West 13.0 mph /  20.9 km/h 14.5 mph /  23.3 km/h 89 % 0.0 in /  0 mm
22:25 9.6 °F /  -12.4 °C 7.9 °F /  -13.4 °C 1007.7 in /  34120.7 hPa WSW 19.5 mph /  31.4 km/h 19.5 mph /  31.4 km/h 89 % 0.0 in /  0 mm
22:37 9.4 °F /  -12.6 °C 7.7 °F /  -13.5 °C 1008.0 in /  34130.9 hPa West 19.5 mph /  31.4 km/h 20.9 mph /  33.6 km/h 89 % 0.0 in /  0 mm
22:43 9.3 °F /  -12.6 °C 7.6 °F /  -13.6 °C 1008.0 in /  34130.9 hPa WSW 17.7 mph /  28.5 km/h 17.7 mph /  28.5 km/h 89 % 0.0 in /  0 mm
22:49 9.3 °F /  -12.6 °C 7.6 °F /  -13.6 °C 1008.0 in /  34130.9 hPa West 9.7 mph /  15.6 km/h 20.9 mph /  33.6 km/h 89 % 0.0 in /  0 mm
22:53 9.3 °F /  -12.6 °C 7.6 °F /  -13.6 °C 1008.0 in /  34130.9 hPa West 16.3 mph /  26.2 km/h 20.9 mph /  33.6 km/h 89 % 0.0 in /  0 mm
22:55 9.3 °F /  -12.6 °C 7.6 °F /  -13.6 °C 1008.0 in /  34130.9 hPa West 14.3 mph /  23 km/h 19.3 mph /  31.1 km/h 89 % 0.0 in /  0 mm
23:07 9.2 °F /  -12.7 °C 7.6 °F /  -13.6 °C 1008.0 in /  34130.9 hPa WSW 16.3 mph /  26.2 km/h 17.7 mph /  28.5 km/h 90 % 0.0 in /  0 mm
23:09 9.2 °F /  -12.7 °C 7.6 °F /  -13.6 °C 1008.4 in /  34144.4 hPa WSW 11.1 mph /  17.9 km/h 19.3 mph /  31.1 km/h 90 % 0.0 in /  0 mm
23:15 9.2 °F /  -12.7 °C 7.6 °F /  -13.6 °C 1008.4 in /  34144.4 hPa WSW 14.3 mph /  23 km/h 19.3 mph /  31.1 km/h 90 % 0.0 in /  0 mm
23:19 9.2 °F /  -12.7 °C 7.6 °F /  -13.6 °C 1008.4 in /  34144.4 hPa SW 6.4 mph /  10.3 km/h 16.1 mph /  25.9 km/h 90 % 0.0 in /  0 mm
23:25 9.2 °F /  -12.7 °C 7.6 °F /  -13.6 °C 1008.4 in /  34144.4 hPa WSW 3.2 mph /  5.1 km/h 14.5 mph /  23.3 km/h 90 % 0.0 in /  0 mm
23:31 9.2 °F /  -12.7 °C 7.6 °F /  -13.6 °C 1008.4 in /  34144.4 hPa SW 7.9 mph /  12.7 km/h 17.7 mph /  28.5 km/h 90 % 0.0 in /  0 mm
23:35 9.2 °F /  -12.7 °C 7.6 °F /  -13.6 °C 1008.4 in /  34144.4 hPa SW 20.9 mph /  33.6 km/h 24.1 mph /  38.8 km/h 90 % 0.0 in /  0 mm
23:41 9.2 °F /  -12.7 °C 7.6 °F /  -13.6 °C 1008.4 in /  34144.4 hPa WSW 7.9 mph /  12.7 km/h 12.9 mph /  20.8 km/h 90 % 0.0 in /  0 mm
23:42 9.2 °F /  -12.7 °C 7.6 °F /  -13.6 °C 1008.4 in /  34144.4 hPa SSW 11.1 mph /  17.9 km/h 20.9 mph /  33.6 km/h 90 % 0.0 in /  0 mm
23:49 9.2 °F /  -12.7 °C 7.6 °F /  -13.6 °C 1008.4 in /  34144.4 hPa SW 6.4 mph /  10.3 km/h 14.5 mph /  23.3 km/h 90 % 0.0 in /  0 mm
23:51 9.2 °F /  -12.7 °C 7.6 °F /  -13.6 °C 1008.4 in /  34144.4 hPa SW 11.1 mph /  17.9 km/h 14.5 mph /  23.3 km/h 90 % 0.0 in /  0 mm
23:57 9.2 °F /  -12.7 °C 7.8 °F /  -13.4 °C 1008.4 in /  34144.4 hPa SW 13.0 mph /  20.9 km/h 16.1 mph /  25.9 km/h 91 % 0.0 in /  0 mm
Meteo18
Compliments of Weather Underground - 4 mb

Script developed by  Jim McMurry - jmcmurry@mwt.net Adapted for the template by  Wim van der Kuil - Leuven-Template.eu

You find our weather info also at:

European Weather Network

Weather Underground

Equipment we use:

Weather-station
Davis Vue

Weather-program
Meteobridge

Weather-server
Raspberry PI 2 B+

Provider
1 and 1

Davis Vue

Meteobridge

Raspberry PI 2 B+

1 and 1